Location: Ambohijanahary
(18.9167°S, 47.5167°E)
Time: 21:55:46
(UTC+00:00)

Daily predictions for brighter satellites

Satellite Brightness Start Highest point End
(mag) Time Altitude Azimuth Time Altitude Azimuth Time Altitude Azimuth
USA 116 4.5 14:59:36 10° NNE 15:04:26 88° WNW 15:09:43 10° SSW
Cosmos 1378 Rocket 3.5 15:00:21 10° N 15:04:41 82° E 15:09:06 10° S
AQUARIUS 4.3 15:01:22 10° S 15:05:54 87° W 15:10:24 10° NNW
Cosmos 1464 Rocket 4.0 15:00:06 10° S 15:06:17 76° E 15:12:23 10° N
Cosmos 2285 Rocket 4.4 15:01:49 10° SSW 15:08:08 73° WNW 15:14:22 10° N
USA 276 4.4 15:07:33 10° SSE 15:08:28 11° SE 15:09:24 10° ESE
Cosmos 1842 4.0 15:05:29 10° NNE 15:08:56 30° E 15:12:26 10° SSE
Envisat 4.2 15:05:23 10° S 15:10:18 48° WSW 15:15:09 10° NNW
CZ-4C R/B 1.7 15:12:18 10° SSW 15:17:02 59° ESE 15:21:24 10° NE
Hubble Space Telescope 2.6 15:13:51 10° WSW 15:17:13 23° S 15:20:35 10° SE
USA 215 4.1 15:13:37 10° ESE 15:19:01 27° NE 15:24:23 10° N
Cosmos 158 Rocket 4.0 15:14:57 10° N 15:19:42 49° ENE 15:24:25 10° SSE
CZ-4 R/B 2.6 15:20:04 10° SE 15:23:23 22° E 15:26:41 10° NNE
Okean-O 3.5 15:20:19 10° SE 15:24:05 27° E 15:27:49 10° NNE
CZ-2D R/B 4.1 15:21:34 10° SE 15:24:59 29° E 15:28:23 10° NNE
NOAA 11 4.2 15:26:17 10° SSE 15:31:49 82° ENE 15:37:19 10° N
FengYun 1-2 T 4.3 15:27:14 10° S 15:32:46 82° WSW 15:38:18 10° NNW
APEX 3.0 15:33:47 10° S 15:36:47 38° ESE 15:38:07 23° ENE
COSMOS 2455 2.8 15:32:35 10° SSW 15:38:34 66° ESE 15:44:30 10° NNE
Cosmos 1437 2.4 15:36:36 10° N 15:39:33 68° E 15:42:32 10° SSE
Cosmos 2112 Rocket 4.0 15:36:27 10° N 15:41:40 66° ENE 15:46:59 10° SSE
X-37B 2.8 15:39:11 10° WSW 15:41:51 24° NW 15:44:29 10° N
Aurora 2 Rocket 4.1 15:32:49 10° WNW 15:42:27 79° SSW 15:47:59 18° ESE
Cosmos 1603 4.1 15:37:56 10° N 15:43:06 39° ENE 15:48:17 10° SE
Meteor 1-15 Rocket 4.4 15:37:57 10° S 15:43:32 74° W 15:49:05 10° N
Cosmos 1680 Rocket 3.5 15:38:17 10° N 15:43:34 85° E 15:48:55 10° SSE
Cosmos 1340 Rocket 3.3 15:41:47 10° SSE 15:45:26 36° E 15:47:35 20° NE
Okean 2 4.0 15:44:16 10° NNW 15:48:19 59° W 15:52:23 10° S
Cosmos 1733 3.2 15:44:39 10° S 15:48:30 56° E 15:52:17 10° NNE
OAO 2 Rocket 4.4 15:49:26 10° W 15:54:01 38° SSW 15:58:04 13° SE
H-2A R/B4.316:01:26NNE16:01:26NNE15:50:13SE
Aureole 2 Rocket 3.8 15:52:19 10° SW 15:55:15 35° WNW 15:58:14 10° N
Cosmos 1805 3.8 15:55:53 10° SSW 15:59:45 58° W 16:03:34 10° N
Atlas Centaur 2 2.8 15:54:54 10° WNW 16:01:57 59° SSW 16:05:39 22° SE
Cosmos 2297 4.5 15:57:24 10° S 16:02:25 30° ESE 16:02:44 30° ESE
RESURS DK-1 3.3 16:01:27 10° SSW 16:05:26 48° WNW 16:09:24 10° N
Cosmos 2278 Rocket 3.3 16:02:44 10° SSW 16:08:07 44° WNW 16:13:26 10° N
Cosmos 1939 Rocket 4.3 16:04:20 10° S 16:08:08 40° WSW 16:11:58 10° NNW
CZ-2C R/B 2.9 16:03:26 10° N 16:09:01 77° WNW 16:14:35 10° SSW
Meteor 1-22 Rocket 4.1 16:06:08 10° S 16:11:38 89° W 16:17:19 10° N
Delta 198 4.2 16:07:30 10° WNW 16:13:42 59° NNE 16:15:02 47° ENE
SeaSat 1 4.4 16:12:21 10° S 16:16:34 29° WSW 16:20:45 10° WNW
DMSP B5D2-2 4.4 16:14:34 10° N 16:19:48 68° W 16:25:02 10° SSW
SWIFT 2.2 16:16:55 10° W 16:21:04 87° WSW 16:21:04 87° WSW
Orbus 7S 4.5 16:19:06 10° W 16:21:06 27° NNW 16:21:06 27° NNW
GPS 2-14 Rocket1 3.5 16:23:13 10° WNW 16:25:56 43° NW 16:25:56 43° NW
Nadezhda 4 Rocket 4.0 16:21:54 10° NNE 16:27:53 56° E 16:34:01 10° SSE
Delta 2 Rocket 3.9 16:23:02 10° WNW 16:29:21 71° SSW 16:30:52 51° SE
CSL-04 Debris 4.0 16:24:15 10° SSE 16:29:43 78° ENE 16:35:06 10° N
Delta 7925 Rocket 4.0 16:25:55 10° NW 16:30:02 44° N 16:30:02 44° N
CSL-04 Rocket 3.4 16:26:24 10° SSE 16:31:44 76° ENE 16:37:05 10° N
GPS 2-12 Rocket1 3.2 16:29:21 10° W 16:33:52 76° WSW 16:33:52 76° WSW
Cosmos 1634 Rocket 4.4 16:28:53 10° SSW 16:35:01 62° W 16:41:04 10° N
CZ-3 Stage 3 3.3 16:33:50 10° SW 16:35:54 34° S 16:35:54 34° S
YAOGAN 1 3.9 16:35:26 10° S 16:39:30 40° WSW 16:43:32 10° NW
Cosmos 1943 Rocket 3.9 16:47:53 10° S 16:49:52 21° S 16:49:52 21° S
CZ-2C R/B 4.0 16:50:07 10° S 16:54:42 43° WSW 16:59:27 10° NNW
CZ-4 R/B 4.3 16:55:24 10° SSW 16:58:07 17° WSW 17:00:50 10° WNW
Hubble Space Telescope 3.4 16:55:41 10° SW 16:56:58 16° SSW 16:56:58 16° SSW
Cosmos 1943 4.5 16:55:55 10° NW 17:01:09 38° WSW 17:06:27 10° S
USA 215 3.9 16:57:30 20° SSE 17:01:56 51° SW 17:08:14 10° WNW
